DW7854 Weather Reports


time (UTC)temp
F
wind
direction
speed
knots
gust
knots
rain 1hr
in
rain 24hr
in
rain mn
in
humidity
%
barometer
mb
20260903171508 92 184 5.2 10.4 0.00 0.00 0.00 64 1013.9
20260903170804 91 176 3.5 8.7 0.00 0.00 0.00 65 1014.3
20260903170105 90 146 4.3 8.7 0.00 0.00 0.00 67 1014.0
20260903165904 91 145 3.5 7.8 0.00 0.00 0.00 67 1014.3
20260903165004 90 149 2.6 7.0 0.00 0.00 0.00 68 1014.6
20260903164607 89 122 2.6 7.0 0.00 0.00 0.00 69 1014.1
20260903164104 90 165 4.3 7.0 0.00 0.00 0.00 67 1014.6
20260903163204 90 138 4.3 8.7 0.00 0.00 0.00 67 1014.7
20260903163002 90 115 3.5 8.7 0.00 0.00 0.00 68 1014.4
20260903162306 90 159 4.3 7.8 0.00 0.00 0.00 68 1014.6
20260903161503 89 163 4.3 8.7 0.00 0.00 0.00 69 1014.4
20260903161404 89 145 4.3 8.7 0.00 0.00 0.00 70 1014.7
20260903160504 88 174 3.5 7.8 0.00 0.00 0.00 71 1014.7
20260903160003 88 177 3.5 10.4 0.00 0.00 0.00 70 1014.3
20260903155604 88 158 4.3 10.4 0.00 0.00 0.00 71 1014.7
20260903154704 86 147 3.5 7.0 0.00 0.00 0.00 73 1014.6
20260903154503 86 136 2.6 7.0 0.00 0.00 0.00 73 1014.4
20260903153804 87 166 4.3 7.8 0.00 0.00 0.00 73 1014.6
20260903153003 87 194 3.5 8.7 0.00 0.00 0.00 72 1014.3
20260903152904 87 159 5.2 8.7 0.00 0.00 0.00 72 1014.5
20260903152004 87 144 4.3 7.8 0.00 0.00 0.00 73 1014.5
20260903151505 86 159 5.2 7.8 0.00 0.00 0.00 73 1014.1
20260903151104 87 158 4.3 7.0 0.00 0.00 0.00 72 1014.5
20260903150204 87 139 3.5 8.7 0.00 0.00 0.00 74 1014.5
20260903150003 86 177 3.5 7.0 0.00 0.00 0.00 74 1014.2
20260903145306 86 147 3.5 6.1 0.00 0.00 0.00 73 1014.6
20260903144505 86 163 2.6 7.0 0.00 0.00 0.00 75 1014.3
20260903144404 86 169 2.6 6.1 0.00 0.00 0.00 75 1014.6
20260903143504 85 169 2.6 5.2 0.00 0.00 0.00 76 1014.7
20260903143006 84 135 2.6 5.2 0.00 0.00 0.00 77 1014.3
20260903142604 85 158 2.6 5.2 0.00 0.00 0.00 77 1014.7
20260903141704 84 148 1.7 6.1 0.00 0.00 0.00 80 1014.8
20260903141506 83 144 0.9 6.1 0.00 0.00 0.00 80 1014.5
20260903140804 83 151 2.6 6.1 0.00 0.00 0.00 83 1014.8
20260903140103 82 205 2.6 4.3 0.00 0.00 0.00 84 1014.6
20260903135904 82 167 2.6 4.3 0.00 0.00 0.00 84 1014.9
20260903135004 81 136 1.7 4.3 0.00 0.00 0.00 86 1014.9
20260903134505 80 86 0.9 4.3 0.00 0.00 0.00 86 1014.7
20260903134104 80 143 1.7 4.3 0.00 0.00 0.00 87 1015.0
20260903133003 79 127 1.7 3.5 0.00 0.00 0.00 89 1014.7
20260903132306 79 130 1.7 4.3 0.00 0.00 0.00 91 1015.0
20260903131611 78 102 0.9 3.5 0.00 0.00 0.00 92 1014.7
20260903131404 78 120 0.9 3.5 0.00 0.00 0.00 92 1014.9
20260903130504 77 265 0.9 2.6 0.00 0.00 0.00 94 1015.0
20260903130005 76 265 0.9 2.6 0.00 0.00 0.00 94 1014.7
20260903124704 76 52 0.0 0.9 0.00 0.00 0.00 94 1014.8
20260903124505 75 51 0.0 0.9 0.00 0.00 0.00 94 1014.6
20260903123003 75 355 0.0 0.0 0.00 0.00 0.00 93 1014.5
20260903122904 75 0 0.0 0.0 0.00 0.00 0.00 93 1014.7
20260903122004 76 0 0.0 0.0 0.00 0.00 0.00 93 1014.7
20260903121504 75 82 0.0 0.0 0.00 0.00 0.00 93 1014.4
20260903121104 76 0 0.0 0.0 0.00 0.00 0.00 93 1014.6
20260903120204 76 0 0.0 0.0 0.00 0.00 0.00 93 1014.5
20260903115305 76 0 0.0 0.0 0.00 0.00 0.00 93 1014.4
20260903114605 75 82 0.0 0.0 0.00 0.00 0.00 93 1014.1
20260903113504 76 0 0.0 0.0 0.00 0.00 0.00 93 1014.3
20260903113003 75 84 0.0 0.0 0.00 0.00 0.00 93 1014.0
20260903112604 76 0 0.0 0.0 0.00 0.00 0.00 93 1014.2
20260903111505 75 65 0.0 0.0 0.00 0.00 0.00 92 1013.9
20260903110106 75 105 0.0 0.0 0.00 0.00 0.00 92 1013.9
20260903105904 76 0 0.0 0.0 0.00 0.00 0.00 92 1014.2
20260903104503 75 105 0.0 0.0 0.00 0.00 0.00 93 1013.8
20260903104104 76 114 0.0 1.7 0.00 0.00 0.00 93 1014.1
20260903103204 76 129 0.9 2.6 0.00 0.00 0.00 93 1014.1
20260903103103 75 134 0.0 2.6 0.00 0.00 0.00 93 1013.8
20260903102306 76 133 0.9 1.7 0.00 0.00 0.00 93 1014.0
20260903101604 75 132 0.0 1.7 0.00 0.00 0.00 93 1013.7
20260903100504 76 133 0.0 2.6 0.00 0.00 0.00 92 1014.1
20260903100004 75 114 0.0 1.7 0.00 0.00 0.00 92 1013.8
20260903095604 76 109 0.9 1.7 0.00 0.00 0.00 92 1014.1
20260903094704 76 64 0.0 1.7 0.00 0.00 0.00 92 1013.9
20260903094611 75 71 0.0 0.9 0.00 0.00 0.00 92 1013.6
20260903093007 76 61 0.0 1.7 0.00 0.00 0.00 92 1013.7
20260903092904 76 61 0.9 2.6 0.00 0.00 0.00 92 1014.0
20260903092004 76 61 0.0 2.6 0.00 0.00 0.00 91 1013.9
20260903091516 76 61 0.0 1.7 0.00 0.00 0.00 91 1013.6
20260903091104 76 62 0.0 0.9 0.00 0.00 0.00 91 1013.9
20260903090204 76 61 0.0 1.7 0.00 0.00 0.00 91 1013.9
20260903090005 76 61 0.0 1.7 0.00 0.00 0.00 91 1013.6
20260903085306 76 61 0.0 1.7 0.00 0.00 0.00 91 1013.7
20260903084605 76 61 0.0 2.6 0.00 0.00 0.00 91 1013.4
20260903084404 76 43 0.9 2.6 0.00 0.00 0.00 91 1013.6
20260903083103 76 45 0.0 0.9 0.00 0.00 0.00 90 1013.3
20260903082604 77 45 0.0 0.9 0.00 0.00 0.00 90 1013.6
20260903081513 76 45 0.0 1.7 0.00 0.00 0.00 89 1013.3
20260903080804 77 96 0.0 1.7 0.00 0.00 0.00 89 1013.5
20260903080003 77 145 0.0 0.9 0.00 0.00 0.00 88 1013.2
20260903075904 77 146 0.0 0.9 0.00 0.00 0.00 88 1013.4
20260903075004 78 146 0.0 0.9 0.00 0.00 0.00 88 1013.3
20260903074604 77 146 0.0 0.9 0.00 0.00 0.00 88 1013.1
20260903074104 78 146 0.0 0.9 0.00 0.00 0.00 87 1013.3
20260903073204 78 146 0.0 0.9 0.00 0.00 0.00 86 1013.4
20260903073008 77 146 0.0 0.9 0.00 0.00 0.00 86 1013.1
20260903071604 78 146 0.0 1.7 0.00 0.00 0.00 86 1013.1
20260903071404 78 136 0.0 1.7 0.00 0.00 0.00 87 1013.4
20260903070504 78 143 0.9 2.6 0.00 0.00 0.00 87 1013.4
20260903070105 78 136 0.0 2.6 0.00 0.00 0.00 86 1013.1
20260903065604 78 147 0.9 1.7 0.00 0.00 0.00 86 1013.5
20260903064704 78 134 0.9 2.6 0.00 0.00 0.00 86 1013.5
20260903064504 78 139 0.0 2.6 0.00 0.00 0.00 86 1013.2
20260903063005 78 156 0.9 3.5 0.00 0.00 0.00 85 1013.1
20260903062904 79 144 0.9 3.5 0.00 0.00 0.00 85 1013.4
20260903062004 79 144 0.9 2.6 0.00 0.00 0.00 84 1013.4
20260903061506 78 148 0.9 2.6 0.00 0.00 0.00 84 1013.3
20260903061104 79 162 0.9 2.6 0.00 0.00 0.00 84 1013.5
20260903060204 79 168 0.9 2.6 0.00 0.00 0.00 83 1013.5
20260903060004 79 168 0.0 2.6 0.00 0.00 0.00 83 1013.3
20260903054604 79 161 0.0 2.6 0.00 0.00 0.00 82 1013.2
20260903054404 80 144 0.9 2.6 0.00 0.00 0.00 82 1013.5
20260903053008 79 146 0.0 2.6 0.00 0.00 0.00 81 1013.2
20260903052604 80 173 1.7 3.5 0.00 0.00 0.00 81 1013.6
20260903051704 80 158 1.7 2.6 0.00 0.00 0.00 81 1013.6
20260903051505 80 162 0.9 2.6 0.00 0.00 0.00 80 1013.3
20260903050804 80 164 0.9 2.6 0.00 0.00 0.00 80 1013.5
20260903050104 80 166 0.9 2.6 0.00 0.00 0.00 79 1013.2
20260903045904 81 136 0.9 2.6 0.00 0.00 0.00 79 1013.4
20260903045004 81 163 1.7 4.3 0.00 0.00 0.00 78 1013.4
20260903044605 80 167 0.9 4.3 0.00 0.00 0.00 78 1013.1
20260903044104 81 152 1.7 4.3 0.00 0.00 0.00 78 1013.4
20260903043103 81 167 0.9 5.2 0.00 0.00 0.00 77 1013.0
20260903042306 81 142 1.7 5.2 0.00 0.00 0.00 77 1013.3
20260903041504 81 141 1.7 4.3 0.00 0.00 0.00 77 1013.1
20260903040504 82 131 0.9 3.5 0.00 0.00 0.00 76 1013.3
20260903040105 82 136 0.0 4.3 0.00 0.00 0.00 76 1013.0
20260903035604 82 110 0.9 4.3 0.00 0.00 0.00 76 1013.3
20260903034704 82 119 0.9 4.3 0.00 0.00 0.00 75 1013.3
20260903034503 82 135 0.9 3.5 0.00 0.00 0.00 75 1013.0
20260903033804 82 130 0.9 4.3 0.00 0.00 0.00 75 1013.4
20260903033008 82 148 0.0 3.5 0.00 0.00 0.00 75 1013.1
20260903032904 82 138 1.7 2.6 0.00 0.00 0.00 75 1013.4
20260903032003 83 145 1.7 4.3 0.00 0.00 0.00 74 1013.4
20260903031502 82 153 1.7 5.2 0.00 0.00 0.00 74 1013.1
20260903031103 83 149 1.7 5.2 0.00 0.00 0.00 73 1013.5
20260903030203 83 142 1.7 3.5 0.00 0.00 0.00 73 1013.5
20260903030008 83 159 0.9 4.3 0.00 0.00 0.00 73 1013.2
20260903025306 83 149 1.7 4.3 0.00 0.00 0.00 73 1013.6
20260903024502 83 134 1.7 5.2 0.00 0.00 0.00 72 1013.2
20260903023504 84 149 1.7 4.3 0.00 0.00 0.00 72 1013.4
20260903023007 83 142 2.6 4.3 0.00 0.00 0.00 71 1013.1
20260903021704 84 144 0.9 2.6 0.00 0.00 0.00 70 1013.2
20260903021603 84 159 0.0 2.6 0.00 0.00 0.00 70 1012.9
20260903020803 85 151 0.9 2.6 0.00 0.00 0.00 70 1013.1
20260903020006 85 166 0.0 2.6 0.00 0.00 0.00 69 1012.7
20260903015904 85 146 1.7 2.6 0.00 0.00 0.00 69 1013.0
20260903015004 85 134 0.9 2.6 0.00 0.00 0.00 69 1012.9
20260903014605 85 135 0.9 4.3 0.00 0.00 0.00 69 1012.6
20260903013203 86 138 0.9 3.5 0.00 0.00 0.00 68 1012.7
20260903013004 86 156 0.9 2.6 0.00 0.00 0.00 68 1012.4
20260903012306 86 137 0.9 3.5 0.00 0.00 0.00 68 1012.7
20260903011502 86 128 0.9 3.5 0.00 0.00 0.00 68 1012.4
20260903011404 86 146 1.7 3.5 0.00 0.00 0.00 67 1012.8
20260903010503 87 148 1.7 4.3 0.00 0.00 0.00 67 1012.7
20260903005603 87 149 2.6 4.3 0.00 0.00 0.00 66 1012.7
20260903004703 88 153 3.5 7.0 0.00 0.00 0.00 66 1012.6
20260903004507 87 160 1.7 7.0 0.00 0.00 0.00 66 1012.3
20260903003106 88 150 2.6 6.1 0.00 0.00 0.00 64 1012.2
20260903002904 89 139 3.5 6.1 0.00 0.00 0.00 64 1012.5
20260903002004 89 153 5.2 9.6 0.00 0.00 0.00 64 1012.5
20260903001504 89 152 6.1 9.6 0.00 0.00 0.00 63 1012.1
20260903001104 89 169 6.1 11.3 0.00 0.00 0.00 63 1012.4
20260903000204 89 172 7.0 10.4 0.00 0.00 0.00 62 1012.3
20260903000008 89 186 7.0 10.4 0.00 0.00 0.00 62 1011.9
20260902235305 90 157 6.1 10.4 0.00 0.00 0.00 62 1012.2
20260902234609 90 164 7.8 11.3 0.00 0.00 0.00 62 1012.0
20260902234403 90 164 6.1 11.3 0.00 0.00 0.00 62 1012.2
20260902233503 91 151 5.2 10.4 0.00 0.00 0.00 61 1012.2
20260902233008 91 171 5.2 10.4 0.00 0.00 0.00 61 1011.7
20260902232604 91 153 5.2 9.6 0.00 0.00 0.00 60 1012.0
20260902231704 92 181 7.0 12.2 0.00 0.00 0.00 60 1012.2
20260902231604 91 156 7.0 12.2 0.00 0.00 0.00 60 1011.8
20260902230803 93 174 6.1 9.6 0.00 0.00 0.00 58 1012.1
20260902230105 93 184 5.2 12.2 0.00 0.00 0.00 57 1011.8
20260902225904 94 162 7.0 12.2 0.00 0.00 0.00 58 1012.1
20260902224505 94 161 4.3 13.0 0.00 0.00 0.00 55 1011.7
20260902224103 95 163 7.8 13.0 0.00 0.00 0.00 55 1012.0
20260902223203 96 170 7.0 12.2 0.00 0.00 0.00 54 1011.9
20260902223004 95 149 6.1 12.2 0.00 0.00 0.00 54 1011.6
20260902221509 96 152 6.1 9.6 0.00 0.00 0.00 52 1011.4
20260902221403 96 152 6.1 9.6 0.00 0.00 0.00 52 1011.7
20260902220503 97 142 6.1 10.4 0.00 0.00 0.00 51 1011.9
20260902220106 97 121 4.3 10.4 0.00 0.00 0.00 51 1011.6
20260902215603 97 156 6.1 10.4 0.00 0.00 0.00 50 1012.0
20260902214703 98 165 5.2 12.2 0.00 0.00 0.00 49 1012.0
20260902214606 98 155 5.2 12.2 0.00 0.00 0.00 49 1011.6
20260902213004 97 111 2.6 8.7 0.00 0.00 0.00 48 1011.8
20260902212903 98 144 5.2 8.7 0.00 0.00 0.00 47 1012.1
20260902212003 98 141 4.3 10.4 0.00 0.00 0.00 47 1012.2
20260902211503 98 132 6.1 10.4 0.00 0.00 0.00 47 1012.0
20260902211103 98 136 4.3 9.6 0.00 0.00 0.00 47 1012.4
20260902210203 98 148 6.1 9.6 0.00 0.00 0.00 47 1012.6
20260902210106 98 172 5.2 10.4 0.00 0.00 0.00 47 1012.3
20260902205306 98 126 5.2 10.4 0.00 0.00 0.00 48 1012.8
20260902204509 98 86 6.1 9.6 0.00 0.00 0.00 47 1012.6
20260902204403 98 139 5.2 10.4 0.00 0.00 0.00 48 1012.9
20260902203503 98 152 5.2 11.3 0.00 0.00 0.00 46 1013.1
20260902203105 98 127 5.2 13.9 0.00 0.00 0.00 46 1012.7
20260902202603 98 148 5.2 13.0 0.00 0.00 0.00 47 1013.1
20260902201703 98 161 7.0 12.2 0.00 0.00 0.00 47 1013.2
20260902201611 98 183 6.1 12.2 0.00 0.00 0.00 47 1012.8
20260902200803 98 160 7.0 12.2 0.00 0.00 0.00 47 1013.3
20260902200009 97 137 7.0 12.2 0.00 0.00 0.00 46 1013.0
20260902195003 98 153 6.1 10.4 0.00 0.00 0.00 47 1013.3
20260902194605 97 163 5.2 10.4 0.00 0.00 0.00 46 1013.1
20260902194103 97 142 5.2 10.4 0.00 0.00 0.00 49 1013.5
20260902193203 97 165 5.2 9.6 0.00 0.00 0.00 51 1013.8
20260902193004 97 161 5.2 12.2 0.00 0.00 0.00 51 1013.4
20260902191505 97 181 4.3 10.4 0.00 0.00 0.00 48 1013.5
20260902191403 98 148 4.3 8.7 0.00 0.00 0.00 48 1013.9
20260902190503 97 158 4.3 10.4 0.00 0.00 0.00 51 1013.9
20260902190104 97 128 4.3 10.4 0.00 0.00 0.00 51 1013.5
20260902185603 97 151 4.3 8.7 0.00 0.00 0.00 52 1013.9
20260902184504 96 119 2.6 12.2 0.00 0.00 0.00 52 1013.7
20260902183803 96 141 3.5 8.7 0.00 0.00 0.00 53 1014.2
20260902183106 95 103 3.5 10.4 0.00 0.00 0.00 52 1014.1
20260902182903 95 140 4.3 13.0 0.00 0.00 0.00 52 1014.5
20260902182004 95 149 5.2 13.0 0.00 0.00 0.00 53 1014.7
20260902181506 95 145 4.3 11.3 0.00 0.00 0.00 54 1014.4
20260902180203 95 145 4.3 11.3 0.00 0.00 0.00 53 1015.0
20260902180008 95 158 5.2 9.6 0.00 0.00 0.00 53 1014.7
20260902174505 94 201 5.2 10.4 0.00 0.00 0.00 55 1015.0
20260902173503 93 146 6.1 13.0 0.00 0.00 0.00 56 1015.4
20260902173104 93 105 4.3 13.0 0.00 0.00 0.00 56 1015.1
20260902172603 93 138 5.2 8.7 0.00 0.00 0.00 56 1015.5
20260902171703 93 127 6.1 11.3 0.00 0.00 0.00 56 1015.8